KLM525 EDDN-EHAM

Flight info

Callsign KLM525
Flight time 1h 1m
Altitude 34000
Route SULUS1G SULUS L604 BIGGE T281 NORKU
Aircraft A320/M-SDE3FGHIRWY/LB1

Departure

Time 2026-04-27 14:02
Airport Nuremberg Airport (EDDN)

Arrival

Time 2026-04-27 15:03
Airport Amsterdam Airport Schiphol (EHAM)
Time Latitude Longitude Altitude Speed Heading
2026-04-27 13:49 49.49541 11.07516 1027 ft 0 kts 188°
2026-04-27 13:53 49.49557 11.07519 1027 ft 2 kts 190°
2026-04-27 13:53 49.49573 11.07523 1028 ft 2 kts 189°
2026-04-27 13:54 49.49589 11.07528 1027 ft 2 kts 178°
2026-04-27 13:54 49.49605 11.07522 1028 ft 2 kts 127°
2026-04-27 13:54 49.49612 11.07503 1027 ft 1 kts 101°
2026-04-27 13:54 49.49613 11.07499 1028 ft 0 kts 99°
2026-04-27 13:55 49.49609 11.07532 1029 ft 6 kts 99°
2026-04-27 13:55 49.49603 11.07593 1029 ft 5 kts 98°
2026-04-27 13:56 49.49597 11.07653 1030 ft 8 kts 99°
2026-04-27 13:56 49.49588 11.07739 1030 ft 8 kts 98°
2026-04-27 13:56 49.49580 11.07825 1030 ft 8 kts 98°
2026-04-27 13:56 49.49572 11.07906 1030 ft 8 kts 98°
2026-04-27 13:57 49.49561 11.08018 1030 ft 11 kts 98°
2026-04-27 13:57 49.49549 11.08138 1030 ft 11 kts 98°
2026-04-27 13:57 49.49538 11.08253 1031 ft 10 kts 98°
2026-04-27 13:57 49.49552 11.08345 1033 ft 12 kts 36°
2026-04-27 13:58 49.49614 11.08419 1031 ft 12 kts 86°
2026-04-27 13:58 49.49606 11.08537 1033 ft 10 kts 97°
2026-04-27 13:58 49.49595 11.08639 1034 ft 9 kts 101°
2026-04-27 13:58 49.49585 11.08729 1035 ft 8 kts 97°
2026-04-27 13:59 49.49578 11.08808 1036 ft 7 kts 98°
2026-04-27 13:59 49.49572 11.08877 1037 ft 6 kts 97°
2026-04-27 13:59 49.49564 11.08968 1038 ft 11 kts 98°
2026-04-27 13:59 49.49551 11.09092 1038 ft 13 kts 98°
2026-04-27 14:00 49.49538 11.09221 1039 ft 11 kts 98°
2026-04-27 14:00 49.49530 11.09326 1042 ft 10 kts 92°
2026-04-27 14:00 49.49583 11.09470 1042 ft 13 kts 53°
2026-04-27 14:00 49.49636 11.09559 1044 ft 11 kts 28°
2026-04-27 14:01 49.49699 11.09520 1045 ft 12 kts 300°
2026-04-27 14:01 49.49708 11.09466 1043 ft 0 kts 278°
2026-04-27 14:01 49.49726 11.09269 1042 ft 68 kts 278°
2026-04-27 14:01 49.49856 11.07946 1045 ft 170 kts 278°
2026-04-27 14:02 49.50016 11.05961 1467 ft 198 kts 276°
2026-04-27 14:02 49.50169 11.03683 2045 ft 228 kts 279°
2026-04-27 14:02 49.50414 11.01168 2850 ft 252 kts 280°
2026-04-27 14:02 49.50710 10.98414 3991 ft 261 kts 281°
2026-04-27 14:03 49.51310 10.95755 5208 ft 267 kts 302°
2026-04-27 14:03 49.52590 10.93661 6321 ft 273 kts 326°
2026-04-27 14:03 49.54342 10.92563 6958 ft 274 kts 352°
2026-04-27 14:03 49.56268 10.92569 8014 ft 277 kts
2026-04-27 14:04 49.58207 10.92665 9281 ft 280 kts
2026-04-27 14:04 49.59960 10.92715 10349 ft 284 kts
2026-04-27 14:05 49.60059 10.92717 10405 ft 283 kts 360°
2026-04-27 14:05 49.62022 10.92814 11534 ft 286 kts 360°
2026-04-27 14:05 49.64091 10.92861 12139 ft 310 kts 359°
2026-04-27 14:05 49.66332 10.92882 12598 ft 335 kts 359°
2026-04-27 14:06 49.68712 10.92895 13375 ft 347 kts 356°
2026-04-27 14:06 49.71119 10.92381 14268 ft 351 kts 343°
2026-04-27 14:06 49.73416 10.91214 15119 ft 354 kts 339°
2026-04-27 14:06 49.75791 10.89940 16008 ft 359 kts 338°
2026-04-27 14:07 49.78131 10.88685 16907 ft 362 kts 338°
2026-04-27 14:07 49.80525 10.87400 17785 ft 366 kts 338°
2026-04-27 14:07 49.82951 10.86099 18638 ft 370 kts 338°
2026-04-27 14:07 49.85396 10.84788 19392 ft 374 kts 338°
2026-04-27 14:08 49.87868 10.83461 20170 ft 377 kts 338°
2026-04-27 14:08 49.90352 10.82126 20954 ft 380 kts 338°
2026-04-27 14:08 49.92864 10.80777 21738 ft 384 kts 338°
2026-04-27 14:08 49.95402 10.79416 22482 ft 387 kts 338°
2026-04-27 14:09 49.97949 10.78049 23203 ft 390 kts 337°
2026-04-27 14:09 50.00524 10.76662 23890 ft 393 kts 337°
2026-04-27 14:09 50.03117 10.75259 24450 ft 396 kts 337°
2026-04-27 14:09 50.05684 10.73677 24986 ft 396 kts 330°
2026-04-27 14:10 50.08036 10.71481 25505 ft 396 kts 321°
2026-04-27 14:10 50.10123 10.68664 26030 ft 396 kts 312°
2026-04-27 14:10 50.12025 10.65544 26553 ft 399 kts 311°
2026-04-27 14:10 50.13939 10.62395 27056 ft 401 kts 311°
2026-04-27 14:11 50.15862 10.59231 27556 ft 404 kts 311°
2026-04-27 14:11 50.17808 10.56033 28067 ft 407 kts 311°
2026-04-27 14:11 50.19119 10.53873 28384 ft 408 kts 311°
2026-04-27 14:11 50.21048 10.50693 28843 ft 411 kts 310°
2026-04-27 14:12 50.23027 10.47433 29285 ft 413 kts 311°
2026-04-27 14:12 50.25028 10.44182 29708 ft 416 kts 311°
2026-04-27 14:12 50.27047 10.40939 30119 ft 419 kts 311°
2026-04-27 14:12 50.29093 10.37670 30475 ft 421 kts 311°
2026-04-27 14:13 50.31147 10.34381 30796 ft 423 kts 311°
2026-04-27 14:13 50.33202 10.31080 31080 ft 425 kts 311°
2026-04-27 14:13 50.35250 10.27760 31373 ft 425 kts 310°
2026-04-27 14:13 50.37226 10.24324 31766 ft 423 kts 308°
2026-04-27 14:14 50.39155 10.20860 32162 ft 421 kts 309°
2026-04-27 14:14 50.41128 10.17452 32571 ft 420 kts 309°
2026-04-27 14:14 50.43130 10.14127 32970 ft 420 kts 310°
2026-04-27 14:14 50.45148 10.10827 33407 ft 418 kts 310°
2026-04-27 14:15 50.47143 10.07522 33842 ft 416 kts 310°
2026-04-27 14:15 50.49116 10.04201 34159 ft 416 kts 309°
2026-04-27 14:15 50.51063 10.00881 34214 ft 411 kts 309°
2026-04-27 14:16 50.54890 9.94257 34223 ft 407 kts 308°
2026-04-27 14:16 50.58528 9.87467 34219 ft 406 kts 306°
2026-04-27 14:17 50.62090 9.80554 34222 ft 406 kts 306°
2026-04-27 14:17 50.65670 9.73665 34224 ft 407 kts 306°
2026-04-27 14:18 50.69282 9.66785 34223 ft 407 kts 306°
2026-04-27 14:18 50.72882 9.59906 34224 ft 407 kts 306°
2026-04-27 14:19 50.76495 9.53001 34219 ft 407 kts 306°
2026-04-27 14:19 50.80100 9.46093 34216 ft 407 kts 306°
2026-04-27 14:20 50.83693 9.39173 34221 ft 407 kts 306°
2026-04-27 14:20 50.87283 9.32253 34228 ft 407 kts 306°
2026-04-27 14:21 50.90875 9.25305 34230 ft 407 kts 306°
2026-04-27 14:21 50.94457 9.18360 34232 ft 407 kts 306°
2026-04-27 14:22 50.98042 9.11394 34242 ft 407 kts 306°
2026-04-27 14:22 51.01615 9.04441 34239 ft 407 kts 305°
2026-04-27 14:23 51.05190 8.97443 34234 ft 407 kts 305°
2026-04-27 14:23 51.08757 8.90443 34231 ft 407 kts 305°
2026-04-27 14:24 51.12301 8.83478 34227 ft 407 kts 305°
2026-04-27 14:24 51.15885 8.76421 34223 ft 407 kts 305°
2026-04-27 14:25 51.19417 8.69454 34218 ft 407 kts 305°
2026-04-27 14:25 51.22966 8.62419 34221 ft 407 kts 305°
2026-04-27 14:26 51.26508 8.55382 34240 ft 407 kts 305°
2026-04-27 14:26 51.30040 8.48318 34231 ft 407 kts 304°
2026-04-27 14:27 51.33823 8.41567 34236 ft 412 kts 315°
2026-04-27 14:27 51.38227 8.35683 34230 ft 413 kts 315°
2026-04-27 14:28 51.42625 8.29762 34228 ft 412 kts 315°
2026-04-27 14:28 51.47006 8.23826 34224 ft 412 kts 315°
2026-04-27 14:29 51.51389 8.17886 34227 ft 413 kts 315°
2026-04-27 14:29 51.55774 8.11925 34255 ft 413 kts 314°
2026-04-27 14:30 51.60151 8.05956 34250 ft 413 kts 314°
2026-04-27 14:30 51.64525 7.99967 34245 ft 413 kts 314°
2026-04-27 14:31 51.68905 7.93971 34243 ft 413 kts 314°
2026-04-27 14:31 51.73280 7.87960 34244 ft 413 kts 314°
2026-04-27 14:32 51.77653 7.81945 34254 ft 413 kts 314°
2026-04-27 14:32 51.82025 7.75914 34271 ft 413 kts 314°
2026-04-27 14:33 51.86255 7.69660 34249 ft 408 kts 306°
2026-04-27 14:33 51.89793 7.62541 34244 ft 406 kts 304°
2026-04-27 14:34 51.93333 7.55401 34236 ft 406 kts 304°
2026-04-27 14:34 51.96864 7.48247 34238 ft 406 kts 304°
2026-04-27 14:35 52.00393 7.41086 34243 ft 406 kts 304°
2026-04-27 14:35 52.03915 7.33914 34245 ft 406 kts 304°
2026-04-27 14:36 52.07428 7.26734 34266 ft 406 kts 304°
2026-04-27 14:36 52.10949 7.19524 34250 ft 406 kts 304°
2026-04-27 14:37 52.14451 7.12321 33797 ft 404 kts 304°
2026-04-27 14:37 52.16181 7.08754 32639 ft 408 kts 304°
2026-04-27 14:37 52.17964 7.05068 31502 ft 411 kts 304°
2026-04-27 14:37 52.19736 7.01403 30419 ft 412 kts 304°
2026-04-27 14:38 52.21514 6.97725 29182 ft 413 kts 304°
2026-04-27 14:38 52.23317 6.94043 27960 ft 417 kts 305°
2026-04-27 14:38 52.25145 6.90385 26989 ft 415 kts 306°
2026-04-27 14:38 52.26947 6.86815 26414 ft 414 kts 306°
2026-04-27 14:39 52.28797 6.83149 25798 ft 411 kts 306°
2026-04-27 14:39 52.30608 6.79543 25198 ft 409 kts 306°
2026-04-27 14:39 52.32380 6.75998 24602 ft 406 kts 306°
2026-04-27 14:39 52.34160 6.72423 24022 ft 405 kts 307°
2026-04-27 14:40 52.35929 6.68863 23342 ft 403 kts 307°
2026-04-27 14:40 52.37693 6.65305 22756 ft 401 kts 307°
2026-04-27 14:40 52.39437 6.61778 22164 ft 398 kts 307°
2026-04-27 14:40 52.41172 6.58273 21578 ft 394 kts 307°
2026-04-27 14:41 52.42893 6.54797 20999 ft 391 kts 307°
2026-04-27 14:41 52.44581 6.51330 20423 ft 387 kts 304°
2026-04-27 14:41 52.45936 6.47559 19854 ft 382 kts 294°
2026-04-27 14:41 52.46823 6.43492 19294 ft 378 kts 284°
2026-04-27 14:42 52.47239 6.39258 18733 ft 375 kts 275°
2026-04-27 14:42 52.47447 6.35009 18131 ft 372 kts 275°
2026-04-27 14:42 52.47658 6.30787 17576 ft 370 kts 275°
2026-04-27 14:42 52.47866 6.26605 17036 ft 367 kts 275°
2026-04-27 14:43 52.48073 6.22445 16481 ft 365 kts 275°
2026-04-27 14:43 52.48280 6.18324 15958 ft 362 kts 275°
2026-04-27 14:43 52.48486 6.14215 15423 ft 360 kts 274°
2026-04-27 14:43 52.48682 6.10142 14901 ft 357 kts 274°
2026-04-27 14:44 52.48876 6.06074 14374 ft 366 kts 274°
2026-04-27 14:44 52.49085 6.01705 13761 ft 395 kts 274°
2026-04-27 14:44 52.49300 5.97162 13175 ft 400 kts 274°
2026-04-27 14:44 52.49512 5.92624 12619 ft 394 kts 274°
2026-04-27 14:45 52.49545 5.88177 11935 ft 388 kts 263°
2026-04-27 14:45 52.48776 5.83981 11219 ft 383 kts 245°
2026-04-27 14:45 52.47573 5.80118 10256 ft 380 kts 243°
2026-04-27 14:45 52.46349 5.76296 9224 ft 376 kts 243°
2026-04-27 14:46 52.45125 5.72520 8397 ft 370 kts 243°
2026-04-27 14:46 52.43958 5.68936 8260 ft 343 kts 243°
2026-04-27 14:46 52.42877 5.65606 8129 ft 321 kts 244°
2026-04-27 14:46 52.41850 5.62458 7898 ft 305 kts 243°
2026-04-27 14:47 52.40865 5.59465 7714 ft 290 kts 243°
2026-04-27 14:47 52.40027 5.56544 7594 ft 279 kts 250°
2026-04-27 14:47 52.39390 5.53563 7373 ft 277 kts 252°
2026-04-27 14:47 52.38782 5.50585 7120 ft 276 kts 253°
2026-04-27 14:48 52.38185 5.47597 6873 ft 275 kts 254°
2026-04-27 14:48 52.36954 5.41662 6356 ft 276 kts 253°
2026-04-27 14:48 52.36318 5.38705 6094 ft 276 kts 252°
2026-04-27 14:49 52.35695 5.35746 5836 ft 273 kts 253°
2026-04-27 14:49 52.35080 5.32800 5580 ft 273 kts 252°
2026-04-27 14:49 52.34473 5.29869 5325 ft 271 kts 253°
2026-04-27 14:49 52.33883 5.26989 5024 ft 270 kts 253°
2026-04-27 14:50 52.33283 5.24052 4737 ft 269 kts 252°
2026-04-27 14:50 52.32685 5.21158 4458 ft 269 kts 253°
2026-04-27 14:50 52.32092 5.18311 4183 ft 267 kts 252°
2026-04-27 14:50 52.31504 5.15436 3901 ft 266 kts 252°
2026-04-27 14:51 52.30924 5.12584 3625 ft 264 kts 253°
2026-04-27 14:51 52.30356 5.09736 3342 ft 263 kts 253°
2026-04-27 14:51 52.29783 5.06899 3081 ft 262 kts 252°
2026-04-27 14:51 52.29400 5.04995 3004 ft 261 kts 253°
2026-04-27 14:52 52.28446 5.01392 3009 ft 264 kts 240°
2026-04-27 14:52 52.27453 4.98824 3009 ft 263 kts 238°
2026-04-27 14:52 52.26473 4.96349 3010 ft 263 kts 238°
2026-04-27 14:52 52.25489 4.93866 3010 ft 252 kts 238°
2026-04-27 14:53 52.24551 4.91516 3006 ft 246 kts 238°
2026-04-27 14:53 52.23611 4.89196 3003 ft 244 kts 238°
2026-04-27 14:53 52.22673 4.86885 2898 ft 243 kts 238°
2026-04-27 14:53 52.21743 4.84594 2458 ft 242 kts 237°
2026-04-27 14:54 52.20826 4.82297 2068 ft 242 kts 237°
2026-04-27 14:54 52.19923 4.80002 2010 ft 241 kts 238°
2026-04-27 14:54 52.19013 4.77679 2014 ft 244 kts 237°
2026-04-27 14:54 52.18101 4.75355 2012 ft 244 kts 237°
2026-04-27 14:55 52.17178 4.73041 2010 ft 244 kts 237°
2026-04-27 14:55 52.16241 4.70713 2001 ft 246 kts 238°
2026-04-27 14:55 52.15303 4.68385 1994 ft 244 kts 237°
2026-04-27 14:55 52.14380 4.66074 1999 ft 245 kts 238°
2026-04-27 14:56 52.13453 4.63757 2002 ft 243 kts 238°
2026-04-27 14:56 52.12942 4.62101 1987 ft 242 kts 255°
2026-04-27 14:56 52.12894 4.59470 1993 ft 223 kts 289°
2026-04-27 14:56 52.13655 4.57477 1994 ft 198 kts 323°
2026-04-27 14:57 52.14752 4.56229 1999 ft 191 kts 331°
2026-04-27 14:57 52.15891 4.55117 1998 ft 191 kts 332°
2026-04-27 14:57 52.17029 4.54002 1995 ft 190 kts 333°
2026-04-27 14:57 52.18206 4.53122 1999 ft 185 kts 356°
2026-04-27 14:58 52.19410 4.53488 2015 ft 173 kts 27°
2026-04-27 14:58 52.20507 4.54275 2011 ft 170 kts 25°
2026-04-27 14:58 52.21499 4.55197 2002 ft 159 kts 41°
2026-04-27 14:58 52.22210 4.56541 2053 ft 157 kts 56°
2026-04-27 14:59 52.22818 4.58015 2032 ft 156 kts 56°
2026-04-27 14:59 52.23389 4.59447 1957 ft 144 kts 57°
2026-04-27 14:59 52.23908 4.60773 1824 ft 135 kts 57°
2026-04-27 14:59 52.24389 4.62010 1672 ft 126 kts 56°
2026-04-27 15:00 52.24843 4.63179 1530 ft 119 kts 57°
2026-04-27 15:00 52.25273 4.64290 1373 ft 115 kts 55°
2026-04-27 15:00 52.25696 4.65386 1215 ft 114 kts 56°
2026-04-27 15:00 52.26118 4.66478 1067 ft 114 kts 55°
2026-04-27 15:01 52.26537 4.67567 903 ft 113 kts 54°
2026-04-27 15:01 52.26947 4.68637 752 ft 113 kts 55°
2026-04-27 15:01 52.27366 4.69719 616 ft 113 kts 54°
2026-04-27 15:01 52.27783 4.70799 461 ft 113 kts 55°
2026-04-27 15:02 52.28205 4.71884 296 ft 114 kts 56°
2026-04-27 15:02 52.28631 4.72978 148 ft 113 kts 57°
2026-04-27 15:02 52.29039 4.74077 19 ft 108 kts 55°
2026-04-27 15:02 52.29381 4.74949 -2 ft 71 kts 56°
2026-04-27 15:03 52.29590 4.75489 -2 ft 51 kts 58°
2026-04-27 15:03 52.29769 4.75956 -3 ft 47 kts 57°
2026-04-27 15:03 52.29935 4.76388 -3 ft 33 kts 58°
2026-04-27 15:03 52.30086 4.76590 -1 ft 21 kts 24°
2026-04-27 15:04 52.30183 4.76671 -1 ft 9 kts 30°
2026-04-27 15:04 52.30222 4.76707 0 ft 0 kts 29°
2026-04-27 15:04 52.30262 4.76737 -1 ft 16 kts 15°
2026-04-27 15:05 52.30341 4.76687 -1 ft 2 kts 298°
2026-04-27 15:07 52.30342 4.76684 -1 ft 1 kts 296°
2026-04-27 15:07 52.30346 4.76659 -1 ft 6 kts 283°
2026-04-27 15:07 52.30404 4.76545 -1 ft 17 kts 329°
2026-04-27 15:08 52.30460 4.76488 -1 ft 2 kts 335°
2026-04-27 15:08 52.30476 4.76494 -1 ft 3 kts 13°
2026-04-27 15:08 52.30499 4.76532 -1 ft 5 kts 57°
2026-04-27 15:08 52.30503 4.76544 -1 ft 1 kts 58°